Location: Demmingen
(48.6757°N, 10.4375°E)
Time: 02:16:15
(UTC+00:00)

ASTEX 1 - Pass Details

Date: 23 May 2024
Orbit: 715 x 740 km, 92.7° (Epoch: 19 June)

Event Time Altitude Azimuth Distance (km) Brightness Sun altitude
Rises 02:27:55 0° 159° (SSE) 3,150 6.4 -8.4°
Reaches altitude 10° 02:30:14 10° 155° (SSE) 2,229 5.7 -8.2°
Maximum altitude 02:35:02 55° 79° (E) 880 4.2 -7.6°
Drops below altitude 10° 02:39:50 10° 2° (N) 2,229 6.6 -7.0°
Sets 02:42:09 0° 358° (N) 3,151 7.3 -6.7°
